TimeEDT,TemperatureF,Dew PointF,Humidity,Sea Level PressureIn,VisibilityMPH,Wind Direction,Wind SpeedMPH,Gust SpeedMPH,PrecipitationIn,Events,Conditions,WindDirDegrees,DateUTC
4:20 AM,44.6,42.8,93,29.91,12.0,West,4.6,-,N/A,,Clear,260,2012-10-01 08:20:00
4:55 AM,44.6,42.8,93,29.94,12.0,WNW,4.6,-,N/A,,Clear,290,2012-10-01 08:55:00
5:55 AM,41.0,41.0,100,29.95,12.0,West,2.3,-,N/A,,Partly Cloudy,280,2012-10-01 09:55:00
6:55 AM,42.8,42.8,100,29.96,12.0,WNW,2.3,-,N/A,Fog,Shallow Fog,290,2012-10-01 10:55:00
7:55 AM,42.8,42.8,100,29.97,12.0,Variable,1.2,-,N/A,Fog,Shallow Fog,0,2012-10-01 11:55:00
8:55 AM,50.0,48.2,94,29.98,12.0,Calm,Calm,-,N/A,,Mostly Cloudy,0,2012-10-01 12:55:00
9:55 AM,55.4,48.2,77,29.98,12.0,NNW,3.5,-,N/A,,Mostly Cloudy,340,2012-10-01 13:55:00
10:55 AM,59.0,46.4,63,29.99,12.0,Variable,1.2,-,N/A,,Mostly Cloudy,0,2012-10-01 14:55:00
11:55 AM,60.8,48.2,63,29.97,12.0,ENE,4.6,-,N/A,,Mostly Cloudy,70,2012-10-01 15:55:00
12:55 PM,62.6,44.6,52,29.96,12.0,Variable,5.8,-,N/A,,Mostly Cloudy,0,2012-10-01 16:55:00
1:55 PM,64.4,44.6,49,29.93,12.0,East,5.8,-,N/A,,Mostly Cloudy,90,2012-10-01 17:55:00
2:55 PM,62.6,44.6,52,29.91,12.0,ESE,5.8,-,N/A,,Overcast,110,2012-10-01 18:55:00
3:55 PM,62.6,46.4,55,29.89,12.0,South,4.6,-,N/A,,Mostly Cloudy,170,2012-10-01 19:55:00
4:58 PM,64.4,46.4,52,29.89,12.0,South,6.9,-,N/A,,Mostly Cloudy,190,2012-10-01 20:58:00
5:55 PM,62.6,46.4,55,29.90,12.0,South,3.5,-,N/A,,Mostly Cloudy,180,2012-10-01 21:55:00
6:55 PM,57.2,48.2,72,29.89,12.0,SE,3.5,-,N/A,,Mostly Cloudy,130,2012-10-01 22:55:00
7:55 PM,55.4,46.4,72,29.89,12.0,East,4.6,-,N/A,,Mostly Cloudy,100,2012-10-01 23:55:00
8:55 PM,53.6,46.4,77,29.90,12.0,Calm,Calm,-,N/A,,Mostly Cloudy,0,2012-10-02 00:55:00
9:55 PM,53.6,48.2,82,29.89,12.0,NE,3.5,-,N/A,,Mostly Cloudy,40,2012-10-02 01:55:00
10:55 PM,53.6,50.0,88,29.88,12.0,Calm,Calm,-,N/A,,Overcast,0,2012-10-02 02:55:00